TimeEEST,TemperatureF,Dew PointF,Humidity,Sea Level PressureIn,VisibilityMPH,Wind Direction,Wind SpeedMPH,Gust SpeedMPH,PrecipitationIn,Events,Conditions,WindDirDegrees,DateUTC
12:20 AM,62.6,59.0,88,29.98,6.2,SE,3.5,-,N/A,,Scattered Clouds,130,2012-10-02 21:20:00
12:50 AM,62.6,59.0,88,29.98,6.2,East,4.6,-,N/A,,Scattered Clouds,90,2012-10-02 21:50:00
1:20 AM,64.4,59.0,83,29.98,6.2,SE,3.5,-,N/A,,Scattered Clouds,130,2012-10-02 22:20:00
1:50 AM,62.6,57.2,82,29.98,6.2,SE,3.5,-,N/A,,Partly Cloudy,130,2012-10-02 22:50:00
2:20 AM,62.6,57.2,82,29.98,6.2,ESE,2.3,-,N/A,,Partly Cloudy,110,2012-10-02 23:20:00
2:50 AM,60.8,57.2,88,29.98,6.2,ESE,3.5,-,N/A,,Partly Cloudy,120,2012-10-02 23:50:00
3:20 AM,60.8,57.2,88,29.98,6.2,SE,3.5,-,N/A,,Partly Cloudy,130,2012-10-03 00:20:00
3:50 AM,60.8,55.4,82,29.95,6.2,SE,3.5,-,N/A,,Partly Cloudy,130,2012-10-03 00:50:00
4:20 AM,60.8,55.4,82,29.95,6.2,Variable,2.3,-,N/A,,Partly Cloudy,0,2012-10-03 01:20:00
4:50 AM,59.0,55.4,88,29.95,6.2,SSE,3.5,-,N/A,,Partly Cloudy,150,2012-10-03 01:50:00
5:20 AM,59.0,55.4,88,29.98,6.2,SE,3.5,-,N/A,,Partly Cloudy,140,2012-10-03 02:20:00
5:50 AM,59.0,55.4,88,29.98,6.2,SE,3.5,-,N/A,,Partly Cloudy,130,2012-10-03 02:50:00
6:20 AM,57.2,53.6,88,29.98,6.2,East,3.5,-,N/A,,Partly Cloudy,100,2012-10-03 03:20:00
6:50 AM,59.0,57.2,94,29.98,6.2,South,4.6,-,N/A,,Partly Cloudy,170,2012-10-03 03:50:00
7:20 AM,59.0,55.4,88,29.98,6.2,Calm,Calm,-,N/A,,Partly Cloudy,0,2012-10-03 04:20:00
7:50 AM,59.0,55.4,88,29.98,6.2,ESE,3.5,-,N/A,,Partly Cloudy,110,2012-10-03 04:50:00
8:20 AM,60.8,57.2,88,29.98,6.2,SE,3.5,-,N/A,,Partly Cloudy,140,2012-10-03 05:20:00
8:50 AM,66.2,59.0,78,29.98,6.2,Variable,1.2,-,N/A,,Partly Cloudy,0,2012-10-03 05:50:00
9:20 AM,68.0,59.0,73,29.98,6.2,East,3.5,-,N/A,,Partly Cloudy,100,2012-10-03 06:20:00
9:50 AM,71.6,59.0,64,29.98,6.2,Variable,2.3,-,N/A,,Partly Cloudy,0,2012-10-03 06:50:00
10:20 AM,75.2,59.0,57,29.98,6.2,Variable,2.3,-,N/A,,Partly Cloudy,0,2012-10-03 07:20:00
10:50 AM,78.8,59.0,51,29.98,6.2,Variable,2.3,-,N/A,,Partly Cloudy,0,2012-10-03 07:50:00
11:20 AM,80.6,59.0,48,29.98,6.2,NW,3.5,-,N/A,,Partly Cloudy,310,2012-10-03 08:20:00
11:50 AM,80.6,60.8,51,29.98,6.2,WNW,9.2,-,N/A,,Partly Cloudy,300,2012-10-03 08:50:00
12:20 PM,82.4,60.8,48,29.98,6.2,West,11.5,-,N/A,,Partly Cloudy,280,2012-10-03 09:20:00
12:50 PM,84.2,55.4,37,29.98,6.2,West,13.8,-,N/A,,Partly Cloudy,280,2012-10-03 09:50:00
1:20 PM,84.2,55.4,37,29.95,6.2,WNW,8.1,-,N/A,,Partly Cloudy,300,2012-10-03 10:20:00
1:50 PM,86.0,53.6,33,29.95,6.2,WNW,6.9,-,N/A,,Partly Cloudy,290,2012-10-03 10:50:00
2:20 PM,87.8,51.8,29,29.92,6.2,West,6.9,-,N/A,,Partly Cloudy,270,2012-10-03 11:20:00
2:50 PM,87.8,50.0,27,29.92,6.2,WNW,11.5,-,N/A,,Partly Cloudy,290,2012-10-03 11:50:00
3:20 PM,87.8,53.6,31,29.92,6.2,WNW,12.7,-,N/A,,Partly Cloudy,290,2012-10-03 12:20:00
3:50 PM,86.0,53.6,33,29.92,6.2,West,13.8,-,N/A,,Partly Cloudy,280,2012-10-03 12:50:00
4:20 PM,86.0,57.2,37,29.92,6.2,West,13.8,-,N/A,,Partly Cloudy,270,2012-10-03 13:20:00
4:50 PM,82.4,57.2,42,29.92,6.2,West,16.1,-,N/A,,Partly Cloudy,270,2012-10-03 13:50:00
5:20 PM,80.6,60.8,51,29.92,6.2,West,15.0,-,N/A,,Partly Cloudy,270,2012-10-03 14:20:00
5:50 PM,78.8,59.0,51,29.92,6.2,West,13.8,-,N/A,,Partly Cloudy,270,2012-10-03 14:50:00
6:20 PM,78.8,62.6,57,29.92,6.2,West,12.7,-,N/A,,Partly Cloudy,260,2012-10-03 15:20:00
6:50 PM,77.0,60.8,57,29.92,6.2,WSW,11.5,-,N/A,,Partly Cloudy,250,2012-10-03 15:50:00
7:20 PM,77.0,60.8,57,29.92,6.2,WSW,9.2,-,N/A,,Partly Cloudy,240,2012-10-03 16:20:00
7:50 PM,75.2,62.6,65,29.92,6.2,SSW,6.9,-,N/A,,Partly Cloudy,210,2012-10-03 16:50:00
8:20 PM,73.4,62.6,69,29.95,6.2,SSE,3.5,-,N/A,,Partly Cloudy,150,2012-10-03 17:20:00
8:50 PM,73.4,62.6,69,29.95,6.2,SSE,3.5,-,N/A,,Partly Cloudy,160,2012-10-03 17:50:00
9:20 PM,69.8,62.6,78,29.95,6.2,East,3.5,-,N/A,,Partly Cloudy,100,2012-10-03 18:20:00
9:50 PM,69.8,60.8,73,29.95,6.2,Variable,3.5,-,N/A,,Partly Cloudy,0,2012-10-03 18:50:00
10:20 PM,69.8,60.8,73,29.95,6.2,SSE,4.6,-,N/A,,Partly Cloudy,160,2012-10-03 19:20:00
10:50 PM,68.0,59.0,73,29.95,6.2,East,3.5,-,N/A,,Partly Cloudy,80,2012-10-03 19:50:00
11:20 PM,66.2,60.8,83,29.95,6.2,SSE,3.5,-,N/A,,Partly Cloudy,150,2012-10-03 20:20:00
11:50 PM,68.0,62.6,83,29.95,6.2,SSW,4.6,-,N/A,,Partly Cloudy,210,2012-10-03 20:50:00